Tomahawk, WI

1:36 AM CDT on September 30, 2016 (GMT -0500)
Tomahawk

Weather History for KTKV - July, 2013

Change the Weather History Date:

Thursday, July 11, 2013

  Actual Average (KRHI) Record (KRHI)
Temperature  
Mean Temperature 62 °F 67 °F  
Max Temperature 78 °F 79 °F 106 °F (1936)
Min Temperature 47 °F 55 °F 41 °F (1945)
Degree Days  
Heating Degree Days 2 2  
Month to date heating degree days 22  
Since 1 June heating degree days 156  
Since 1 July heating degree days 22  
Cooling Degree Days 0 4  
Month to date cooling degree days 34  
Year to date cooling degree days 99  
Since 1 June cooling degree days 87  
Growing Degree Days 12 (Base 50)    
Moisture  
Dew Point 52 °F    
Average Humidity 71    
Maximum Humidity 97    
Minimum Humidity 36    
Precipitation  
Precipitation 0.00 in 0.13 in 0.78 in (1935)
Month to date precipitation 1.48  
Year to date precipitation 15.05  
Snow  
Snow 0.00 in - 0.00 in ()
Month to date snowfall  
Since 1 June snowfall  
Since 1 July snowfall  
Snow Depth -    
Sea Level Pressure  
Sea Level Pressure 30.10 in    
Wind  
Wind Speed 0 mph (South)    
Max Wind Speed 6 mph    
Max Gust Speed -    
Visibility 9 miles    
Events      
T = Trace of Precipitation, MM = Missing Value Source: NWS Daily Summary

Daily Weather History Graph

Daily Weather History Graph

Search for Another Location

Airport or City:

Trip Planner

Search our weather history database for the weather conditions in past years. The results will help you decide how hot, cold, wet, or windy it might be!

Date:

Astronomy

Jul. 11, 2013 Rise Set
Actual Time 5:21 AM CDT 8:47 PM CDT
Civil Twilight 4:45 AM CDT 9:23 PM CDT
Nautical Twilight 3:56 AM CDT 10:12 PM CDT
Astronomical Twilight 2:54 AM CDT 11:13 PM CDT
Moon 8:52 AM CDT (7/11) 10:13 PM CDT (7/11)
Length of Visible Light 16h 38m
Length of Day
15h 25m
Waxing Crescent, 11% of the Moon is Illuminated
Jul 11
Waxing Crescent
Jul 15
First Quarter
Jul 22
Full
Jul 29
Last Quarter
Aug 6
New

Hourly Weather History & Observations

Time (CDT) Temp. Dew Point Humidity Pressure Visibility Wind Dir Wind Speed Gust Speed Precip Events Conditions
12:15 AM 51.1 °F 50.0 °F 96% 30.05 in 7.0 mi Calm Calm - N/A   Clear
12:35 AM 51.4 °F 50.2 °F 95% 30.05 in 10.0 mi Calm Calm - N/A   Clear
12:55 AM 50.5 °F 49.3 °F 95% 30.06 in 7.0 mi Calm Calm - N/A   Clear
1:15 AM 51.1 °F 50.0 °F 96% 30.06 in 7.0 mi Calm Calm - N/A   Clear
1:35 AM 51.6 °F 50.4 °F 95% 30.07 in 7.0 mi Calm Calm - N/A   Clear
1:55 AM 52.3 °F 51.3 °F 96% 30.07 in 10.0 mi Calm Calm - N/A   Clear
2:15 AM 52.7 °F 51.6 °F 96% 30.07 in 10.0 mi Calm Calm - N/A   Clear
2:35 AM 53.6 °F 52.2 °F 95% 30.08 in 7.0 mi Calm Calm - N/A   Scattered Clouds
2:55 AM 53.1 °F 51.8 °F 95% 30.08 in 10.0 mi Calm Calm - N/A   Scattered Clouds
3:15 AM 52.9 °F 51.8 °F 96% 30.09 in 7.0 mi Calm Calm - N/A   Scattered Clouds
3:35 AM 52.5 °F 51.3 °F 95% 30.09 in 7.0 mi Calm Calm - N/A   Clear
3:55 AM 52.2 °F 50.9 °F 95% 30.09 in 7.0 mi Calm Calm - N/A   Clear
4:15 AM 50.2 °F 49.1 °F 96% 30.10 in 3.0 mi Calm Calm - N/A   Clear
4:35 AM 49.6 °F 48.4 °F 95% 30.10 in 3.0 mi Calm Calm - N/A   Clear
4:55 AM 49.1 °F 48.2 °F 97% 30.11 in 5.0 mi Calm Calm - N/A   Clear
5:15 AM 48.6 °F 47.5 °F 96% 30.11 in 2.5 mi Calm Calm - N/A   Clear
5:35 AM 47.7 °F 46.6 °F 96% 30.12 in 2.0 mi Calm Calm - N/A   Clear
5:55 AM 48.2 °F 46.9 °F 95% 30.12 in 7.0 mi Calm Calm - N/A   Clear
6:15 AM 48.7 °F 47.7 °F 96% 30.12 in 7.0 mi Calm Calm - N/A   Clear
6:35 AM 52.2 °F 51.3 °F 97% 30.13 in 7.0 mi Calm Calm - N/A   Clear
6:55 AM 54.5 °F 53.2 °F 96% 30.13 in 10.0 mi Calm Calm - N/A   Clear
7:15 AM 55.6 °F 54.7 °F 97% 30.14 in 10.0 mi Calm Calm - N/A   Clear
7:35 AM 57.4 °F 55.4 °F 93% 30.14 in 10.0 mi Calm Calm - N/A   Clear
7:55 AM 59.0 °F 55.8 °F 89% 30.14 in 10.0 mi Calm Calm - N/A   Clear
8:15 AM 61.5 °F 56.7 °F 84% 30.15 in 10.0 mi Calm Calm - N/A   Clear
8:35 AM 63.9 °F 56.7 °F 77% 30.15 in 10.0 mi Calm Calm - N/A   Clear
8:55 AM 66.6 °F 56.5 °F 70% 30.15 in 10.0 mi Calm Calm - N/A   Clear
9:15 AM 68.2 °F 55.8 °F 64% 30.15 in 10.0 mi Calm Calm - N/A   Clear
9:35 AM 69.8 °F 55.6 °F 61% 30.15 in 10.0 mi Calm Calm - N/A   Clear
9:55 AM 70.7 °F 52.2 °F 52% 30.15 in 10.0 mi Calm Calm - N/A   Clear
10:35 AM 72.1 °F 52.0 °F 49% 30.14 in 10.0 mi Calm Calm - N/A   Clear
11:15 AM 73.8 °F 49.3 °F 42% 30.14 in 10.0 mi Calm Calm - N/A   Clear
11:35 AM 73.6 °F 49.6 °F 43% 30.14 in 10.0 mi Calm Calm - N/A   Clear
11:55 AM 73.9 °F 50.4 °F 43% 30.14 in 10.0 mi Calm Calm - N/A   Clear
12:15 PM 74.8 °F 48.0 °F 39% 30.14 in 10.0 mi Calm Calm - N/A   Clear
12:55 PM 75.4 °F 50.4 °F 41% 30.14 in 10.0 mi Calm Calm - N/A   Clear
1:15 PM 75.4 °F 47.7 °F 37% 30.13 in 10.0 mi Calm Calm - N/A   Clear
1:55 PM 76.8 °F 50.9 °F 40% 30.13 in 10.0 mi Calm Calm - N/A   Clear
2:15 PM 77.5 °F 51.6 °F 40% 30.12 in 10.0 mi Calm Calm - N/A   Clear
2:35 PM 77.2 °F 50.0 °F 38% 30.12 in 10.0 mi SE 3.5 mph - N/A   Clear
2:55 PM 77.5 °F 48.4 °F 36% 30.11 in 10.0 mi SSW 3.5 mph - N/A   Clear
3:55 PM 78.3 °F 52.0 °F 40% 30.11 in 10.0 mi South 4.6 mph - N/A   Clear
4:15 PM 77.9 °F 49.5 °F 37% 30.10 in 10.0 mi South 3.5 mph - N/A   Clear
4:35 PM 77.7 °F 48.9 °F 36% 30.10 in 10.0 mi Calm Calm - N/A   Clear
4:55 PM 78.1 °F 51.6 °F 40% 30.09 in 10.0 mi ESE 4.6 mph - N/A   Clear
5:15 PM 77.9 °F 51.3 °F 39% 30.09 in 10.0 mi SSE 4.6 mph - N/A   Clear
5:35 PM 77.7 °F 52.0 °F 41% 30.09 in 10.0 mi SSE 5.8 mph - N/A   Clear
5:55 PM 77.0 °F 52.7 °F 43% 30.09 in 10.0 mi Calm Calm - N/A   Clear
6:15 PM 76.6 °F 53.6 °F 45% 30.08 in 7.0 mi South 3.5 mph - N/A   Clear
6:35 PM 76.1 °F 52.3 °F 43% 30.09 in 10.0 mi SSW 3.5 mph - N/A   Clear
6:55 PM 75.2 °F 52.5 °F 45% 30.09 in 10.0 mi Calm Calm - N/A   Clear
7:15 PM 74.5 °F 55.4 °F 51% 30.08 in 10.0 mi Calm Calm - N/A   Clear
7:35 PM 72.9 °F 56.3 °F 56% 30.08 in 10.0 mi Calm Calm - N/A   Clear
7:55 PM 70.5 °F 57.9 °F 64% 30.07 in 10.0 mi Calm Calm - N/A   Clear
8:15 PM 68.2 °F 57.6 °F 69% 30.07 in 10.0 mi Calm Calm - N/A   Clear
8:35 PM 66.4 °F 57.0 °F 72% 30.07 in 10.0 mi Calm Calm - N/A   Clear
8:55 PM 64.2 °F 56.8 °F 77% 30.07 in 10.0 mi Calm Calm - N/A   Clear
9:55 PM 60.8 °F 56.7 °F 86% 30.08 in 10.0 mi Calm Calm - N/A   Clear
10:15 PM 60.3 °F 56.3 °F 87% 30.09 in 10.0 mi Calm Calm - N/A   Clear
10:35 PM 59.5 °F 55.6 °F 87% 30.09 in 10.0 mi Calm Calm - N/A   Clear
10:55 PM 59.4 °F 56.3 °F 90% 30.08 in 10.0 mi Calm Calm - N/A   Clear
11:15 PM 58.8 °F 55.8 °F 90% 30.09 in 10.0 mi Calm Calm - N/A   Clear
11:35 PM 59.2 °F 55.4 °F 87% 30.09 in 10.0 mi Calm Calm - N/A   Clear
11:55 PM 59.0 °F 55.0 °F 87% 30.10 in 10.0 mi Calm Calm - N/A   Clear